Location: Newark
(12.4436°N, 0.6167°W)
Time: 08:33:59
(UTC+00:00)

Vanguard 2 - Pass Details

Date: 14 December 2019
Orbit: 553 x 2938 km, 32.9° (Epoch: 19 January)

Event Time Altitude Azimuth Distance (km) Brightness Sun altitude
Rises 07:06:23 0° 302° (WNW) 6,782 11.7 10.5°
Reaches altitude 10° 07:11:03 10° 303° (WNW) 5,692 11.4 11.6°
Maximum altitude 07:28:09 89° 29° (NNE) 2,283 10.2 15.3°
Drops below altitude 10° 07:39:11 10° 123° (ESE) 3,872 13.7 17.6°
Sets 07:41:45 0° 123° (ESE) 4,590 13.2 18.2°
